Location: Kile Knob Observatory
(38.6083°N, 79.4792°W)
Time: 08:29:40
(UTC-04:00)

OTV 5 (USA 277) - Visible Passes

Search period start: 17 October 2019 00:00
Search period end: 27 October 2019 00:00
Orbit: 310 x 324 km, 54.5° (Epoch: 08 October)

Date Brightness Start Highest point End Pass type
(mag) Time Alt. Az. Time Alt. Az. Time Alt. Az.
17 Oct ? 06:26:01 10° N 06:27:53 16° NNE 06:29:43 10° ENE visible
18 Oct ? 06:40:01 10° NNW 06:42:37 37° NE 06:45:11 10° ESE visible
19 Oct ? 05:23:15 11° NE 05:23:15 11° NE 05:23:40 10° NE visible
19 Oct ? 06:54:28 10° NW 06:57:11 63° SW 06:59:51 10° SE visible
20 Oct ? 05:37:54 22° NE 05:37:54 22° NE 05:39:40 10° E visible
21 Oct ? 05:52:40 45° ESE 05:52:40 45° ESE 05:54:43 10° SE visible
22 Oct ? 06:07:36 23° S 06:07:36 23° S 06:09:00 10° SSE visible
26 Oct ? 20:12:17 10° SW 20:13:07 18° SSW 20:13:07 18° SSW visible
